Find Vanguard

NORAD ID: 58340 Int'l Des: 2023-174 Owner: SPIREG/GHG Country: US operational
LEOCIRCULARRETROGRADESSO

实时位置

正在加载3D地球...

关于 Vanguard

正在加载描述...

即将过境

Passes for default location (London). Set your location on the main map for personalized predictions.

高度历史

Loading altitude history...

两行轨道根数

1 58340U 23174CN 26107.16752222 .00006748 00000-0 15444-3 0 9996
2 58340 97.3966 196.1749 0005848 351.2627 8.8518 15.43123133136231
Epoch: Apr 17, 2026 • Age: 11 hours

当前状态

高度 435.5 km
速度 7.65 km/s
星下点 11.33°N, 124.95°E
发射日期 Nov 11, 2023
运行时间 2.4 years
类型 other

技术详情

分类 Payload
质量 20.00 kg
干质量 20.00 kg
总质量 20.00 kg
长度 0.40 m
直径 0.40 m
跨度 0.40 m
形状 Box
制造商 SPIREG
平台类型 Cubesat 16U
阶段状态 In Orbit
所有者/国家 SPIREG/GHG/US

Most Searched